Change the Weather History Date:

Sunday, June 16, 2013

  Actual Average Record
Temperature  
Mean Temperature 67 °F -  
Max Temperature 84 °F 74 °F 91 °F (1987)
Min Temperature 52 °F 49 °F 37 °F (1982)
Cooling Degree Days 2    
Growing Degree Days 17 (Base 50)    
Moisture  
Dew Point 47 °F    
Average Humidity 51    
Maximum Humidity 81    
Minimum Humidity 24    
Precipitation  
Precipitation 0.00 in - - ()
Sea Level Pressure  
Sea Level Pressure 29.85 in    
Wind  
Wind Speed 9 mph (West)    
Max Wind Speed 25 mph    
Max Gust Speed 37 mph    
Visibility 10 miles    
Events Rain    
Averages and records for this station are not official NWS values.
T = Trace of Precipitation, MM = Missing Value Source: NWS Daily Summary

Daily Weather History Graph

Daily Weather History Graph

Search for Another Location

Airport or City:

Trip Planner

Search our weather history database for the weather conditions in past years. The results will help you decide how hot, cold, wet, or windy it might be!

Date:

Astronomy

Jun. 16, 2013 Rise Set
Actual Time 5:25 AM CDT 9:17 PM CDT
Civil Twilight 4:45 AM CDT 9:56 PM CDT
Nautical Twilight 3:51 AM CDT 10:51 PM CDT
Astronomical Twilight 2:30 AM CDT 12:11 AM CDT
Moon 1:29 PM CDT (6/16) 12:56 AM CDT (6/16)
Length of Visible Light 17h 11m
Length of Day
15h 52m
Waxing Crescent, 50% of the Moon is Illuminated
Jun 16
Waxing Crescent
Jun 16
First Quarter
Jun 23
Full
Jun 29
Last Quarter
Jul 8
New

Hourly Weather History & Observations

Time (CDT) Temp. Dew Point Humidity Pressure Visibility Wind Dir Wind Speed Gust Speed Precip Events Conditions
12:53 AM 55.0 °F 46.9 °F 74% 29.87 in 10.0 mi WSW 5.8 mph - N/A   Clear
2:53 AM 54.0 °F 46.0 °F 75% 29.87 in 10.0 mi West 4.6 mph - N/A   Clear
3:53 AM 52.0 °F 46.0 °F 80% 29.87 in 10.0 mi West 3.5 mph - N/A   Clear
4:53 AM 52.0 °F 46.0 °F 80% 29.87 in 10.0 mi WNW 4.6 mph - N/A   Partly Cloudy
5:53 AM 53.1 °F 46.9 °F 80% 29.88 in 10.0 mi Calm Calm - N/A   Clear
6:53 AM 57.0 °F 51.1 °F 81% 29.89 in 10.0 mi Calm Calm - N/A   Clear
7:53 AM 64.0 °F 53.1 °F 67% 29.88 in 10.0 mi WSW 5.8 mph - N/A   Clear
8:53 AM 71.1 °F 50.0 °F 47% 29.88 in 10.0 mi WNW 10.4 mph - N/A   Clear
9:53 AM 73.9 °F 50.0 °F 43% 29.88 in 10.0 mi WSW 12.7 mph 18.4 mph N/A   Clear
10:53 AM 77.0 °F 48.0 °F 36% 29.87 in 10.0 mi West 17.3 mph 24.2 mph N/A   Clear
11:53 AM 79.0 °F 46.9 °F 32% 29.86 in 10.0 mi WSW 13.8 mph 25.3 mph N/A   Clear
12:53 PM 78.1 °F 46.0 °F 32% 29.85 in 10.0 mi WSW 18.4 mph 25.3 mph N/A   Scattered Clouds
1:53 PM 82.0 °F 46.0 °F 28% 29.84 in 10.0 mi WSW 13.8 mph 27.6 mph N/A   Scattered Clouds
2:53 PM 78.1 °F 43.0 °F 29% 29.85 in 10.0 mi West 19.6 mph 27.6 mph N/A   Scattered Clouds
3:53 PM 82.0 °F 43.0 °F 25% 29.83 in 10.0 mi West 17.3 mph 31.1 mph 0.00 in   Partly Cloudy
4:53 PM 79.0 °F 46.9 °F 32% 29.82 in 10.0 mi West 13.8 mph - 0.00 in Rain Light Rain
5:53 PM 81.0 °F 41.0 °F 24% 29.80 in 10.0 mi WNW 25.3 mph 36.8 mph 0.00 in   Partly Cloudy
6:53 PM 80.1 °F 43.0 °F 27% 29.80 in 10.0 mi WNW 19.6 mph 26.5 mph N/A   Scattered Clouds
7:53 PM 75.9 °F 46.0 °F 35% 29.81 in 10.0 mi NNW 13.8 mph 24.2 mph N/A   Mostly Cloudy
8:53 PM 72.0 °F 48.9 °F 44% 29.83 in 10.0 mi NNW 12.7 mph 18.4 mph N/A   Partly Cloudy
9:53 PM 66.0 °F 50.0 °F 56% 29.85 in 10.0 mi NNW 4.6 mph - N/A   Clear
10:53 PM 60.1 °F 51.1 °F 72% 29.87 in 10.0 mi West 5.8 mph - N/A   Clear
11:53 PM 61.0 °F 51.1 °F 70% 29.87 in 10.0 mi NW 4.6 mph - N/A   Overcast